Regional Weather Roundup
Issued by NWS

Home | Current Version | Previous Version | Text Only | Print | Product List | Glossary Off
Versions: 1 2 3 4 5 6 7 8 9 10 11 12 13 14 15 16 17 18 19 20 21 22 23 24 25 26 27 28 29 30 31 32 33 34 35 36 37 38 39 40 41 42 43 44 45 46 47 48 49 50

000
ASUS45 KCYS 272110
RWRWY

WYOMING REGIONAL WEATHER ROUNDUP
NATIONAL WEATHER SERVICE CHEYENNE WY
300 PM MDT WED MAY 27 2015

NOTE:  "FAIR" INDICATES FEW OR NO CLOUDS BELOW 12,000 FEET
WITH NO SIGNIFICANT WEATHER AND/OR OBSTRUCTIONS TO VISIBILITY.

WYZ001-272200-
YELLOWSTONE NATIONAL PARK

CITY           SKY/WX    TMP DP  RH WIND       PRES   REMARKS
LK YELLOWSTONE   N/A     51  35  54 VRB6      30.14F
W YELLOWSTONE  NOT AVBL

$$
WYZ002>013-054>058-071-098>099-272200-
NORTHERN WYOMING

CITY           SKY/WX    TMP DP  RH WIND       PRES   REMARKS
JACKSON        CLOUDY    48  45  87 W3        30.12F
CODY           FAIR      64  43  45 SE8       29.98F
GREYBULL       FAIR      71  45  39 VRB3      29.94F
WORLAND        FAIR      71  45  39 VRB5      29.95F
SHERIDAN       FAIR      68  50  52 N6        29.96F
BUFFALO        FAIR      65  48  54 N6        29.99F
GILLETTE       PTSUNNY   71  51  49 W6        29.94F
HULETT         CLOUDY    70  46  43 CALM      29.96S
NEWCASTLE      FAIR      68  46  45 S8        29.98F

$$
WYZ014>020-022>026-101>103-272200-
CENTRAL WYOMING

CITY           SKY/WX    TMP DP  RH WIND       PRES   REMARKS
BIG PINEY      PTSUNNY   49  42  77 W3        30.13S
PINEDALE       RAIN      50  41  71 S10G16    30.15R
DUBOIS         FAIR      55  34  44 N22       30.08S
LANDER         FAIR      69  44  40 VRB7      29.97F
RIVERTON       FAIR      68  40  35 SE5       30.00F
CASPER         FAIR      70  46  42 W12G18    30.00F
DOUGLAS        FAIR      72  46  39 W14G20    29.99F

$$
WYZ021-027>030-104>119-272200-
SOUTHERN WYOMING

CITY           SKY/WX    TMP DP  RH WIND       PRES   REMARKS
EVANSTON       PTSUNNY   58  43  57 SW13G23   30.14F
KEMMERER       MOCLDY    57  41  54 W16G22    30.13S
FORT BRIDGER   TSTM      52  43  71 W18G30    30.18R
ROCK SPRINGS   FAIR      61  38  42 VRB5      30.09F
RAWLINS        FAIR      64  42  44 SW14      30.11F
SARATOGA       MOCLDY    63  36  36 W10G16    30.14F
LARAMIE        PTSUNNY   64  36  35 W15G23    30.12F
CHEYENNE       PTSUNNY   67  39  35 CALM      30.07S
TORRINGTON     PTSUNNY   71  46  40 MISG      29.99S
PINE BLUFFS    FAIR      68  46  45 NE8       30.06F

$$


USA.gov is the U.S. government's official web portal to all federal, state and local government web resources and services.